This demonstration page uses our WeatherBlox Daily Observations layout. Learn more.

Left ArrowRight Arrow

44.31136, -96.79839

Hourly Observations for September 7, 2021

Temp ( °F °C ) Dew Point ( °F °C ) Humidity (%) Winds ( mph kmh ) Pressure ( in mb ) Visibility ( mi km ) Precip ( " mm )
12:56 am 00:56 Clear 67 19.4 65 18.3 93 93 WSW 5 7 29.73 1007 10 16 0.00 0.00
1:56 am 01:56 Clear 69 20.6 64 17.8 84 84 WNW 7 11 29.73 1007 10 16 0.00 0.00
2:56 am 02:56 Clear 66 18.9 61 16.1 84 84 WNW 6 9 29.74 1007 10 16 0.00 0.00
3:56 am 03:56 Clear 66 18.9 59 15 78 78 NW 8 13 29.74 1007 10 16 0.00 0.00
4:56 am 04:56 Clear 65 18.3 59 15 81 81 NNW 13 20 29.78 1008 10 16 0.00 0.00
5:56 am 05:56 Mostly Clear 62 16.7 55 12.8 78 78 N 12 19 29.83 1010 10 16 0.00 0.00
6:56 am 06:56 Clear 58 14.4 52 11.1 81 81 N 9 15 29.88 1012 10 16 0.00 0.00
7:56 am 07:56 Sunny 59 15 53 11.7 81 81 NW 7 11 29.91 1013 10 16 0.00 0.00
8:56 am 08:56 Sunny 62 16.7 53 11.7 73 73 NNW 12 19 29.94 1014 10 16 0.00 0.00
10:56 am 10:56 Sunny 69 20.6 49 9.4 49 49 NNW 24 39 29.96 1015 10 16 0.00 0.00
11:56 am 11:56 Sunny 72 22.2 50 10 46 46 NNW 15 24 29.97 1015 10 16 0.00 0.00
12:56 pm 12:56 Sunny 73 22.8 49 9.4 43 43 NW 20 31 29.97 1015 10 16 0.00 0.00
1:56 pm 13:56 Sunny 73 22.8 49 9.4 43 43 NW 23 37 29.96 1015 10 16 0.00 0.00
2:56 pm 14:56 Sunny 74 23.3 46 7.8 37 37 NNW 22 35 29.96 1014 10 16 0.00 0.00
3:56 pm 15:56 Mostly Sunny 74 23.3 45 7.2 36 36 NW 24 39 29.95 1014 10 16 0.00 0.00
4:56 pm 16:56 Sunny 74 23.3 45 7.2 36 36 NW 21 33 29.95 1014 10 16 0.00 0.00
5:56 pm 17:56 Sunny 74 23.3 44 6.7 34 34 NW 20 31 29.96 1014 10 16 0.00 0.00
6:56 pm 18:56 Sunny 71 21.7 47 8.3 42 42 NW 12 19 29.96 1015 10 16 0.00 0.00
7:56 pm 19:56 Clear 65 18.3 47 8.3 52 52 WNW 7 11 29.97 1015 10 16 0.00 0.00
8:56 pm 20:56 Clear 62 16.7 46 7.8 56 56 WNW 7 11 29.99 1016 10 16 0.00 0.00
9:56 pm 21:56 Clear 58 14.4 46 7.8 65 65 WNW 7 11 30.00 1016 10 16 0.00 0.00
10:56 pm 22:56 Mostly Clear 57 13.9 46 7.8 67 67 NW 10 17 30.01 1016 10 16 0.00 0.00
11:56 pm 23:56 Clear 56 13.3 47 8.3 72 72 NW 10 17 30.01 1016 10 16 0.00 0.00

Powered by AerisWeather